User: anonymous   Login
Location: Davayat
(45.9471°N, 3.1105°E)
Time: 07:32:05
(UTC+00:00)
Language:

FENGYUN 1C DEB - Orbit

View from above orbital plane
View from above orbital plane
View from above satellite
View from above satellite

Ground track
Ground track

The orbit data is extracted from the following two-line orbital elements,

1 30686U 99025AQU 21166.87998861  .00000313  00000-0  73099-4 0  9999
2 30686  99.0414 202.3566 0203520  72.5424  99.6548 14.50733031757324
Epoch (UTC): 15 June 2021 21:07:11
Eccentricity: 0.0203520
inclination: 99.0414°
perigee height: 579 km
apogee height: 868 km
right ascension of ascending node: 202.3566°
argument of perigee: 72.5424°
revolutions per day: 14.50733031
mean anomaly at epoch: 99.6548°
orbit number at epoch: 75732

The dashed part of the orbit path shows where the satellite is in the earth's shadow,  

DLR